{"data":{"norad_id":64620,"epoch":"2026-05-24T22:08:54.645216Z","epoch_age_seconds":81610,"freshness":"FRESH","line1":"1 64620U 25137AC  26144.92285469  .00014575  00000+0  50311-3 0  9992","line2":"2 64620  53.1606 341.3377 0001299  96.6984 263.4164 15.30209162 52408","mean_motion":15.30209162,"eccentricity":0.0001299,"inclination_deg":53.1606,"raan_deg":341.3377,"arg_perigee_deg":96.6984,"mean_anomaly_deg":263.4164,"bstar":0.00050311,"rev_number":5240,"period_min":94.104782258518,"perigee_km":474.297466595,"apogee_km":476.07796035556,"semimajor_km":6853.3247134753,"source":"CELESTRAK","updated_at":"2026-05-25T13:38:20.500135Z"}}